Regional Weather Roundup
Issued by NWS

Home | Current Version | Previous Version | Graphics & Text | Print | Product List | Glossary On
Versions: 1 2 3 4 5 6 7 8 9 10 11 12 13 14 15 16 17 18 19 20 21 22 23 24 25 26 27 28 29 30 31 32 33 34 35 36 37 38 39 40 41 42 43 44 45 46 47 48 49 50
000
ASUS43 KMPX 220810
RWRMN
WEATHER ROUNDUP FOR MINNESOTA
NATIONAL WEATHER SERVICE TWIN CITIES/CHANHASSEN MN
200 AM CST SAT NOV 22 2014


NOTE: "FAIR" INDICATES FEW OR NO CLOUDS BELOW 12,000 FEET WITH NO
SIGNIFICANT WEATHER AND/OR OBSTRUCTIONS TO VISIBILITY. N/A MEANS
CURRENT SKY AND/OR WEATHER CONDITIONS ARE NOT AVAILABLE.

MNZ060>063-068>070-220900-
   Twin Cities Metro

CITY           SKY/WX    TMP DP  RH WIND       PRES   REMARKS
TWIN CITIES    CLOUDY    35  31  85 S9        29.84F FOG     WCI  28
ST PAUL        CLOUDY    36  31  82 S9        29.86F
CRYSTAL        CLOUDY    37  31  78 S12       29.82F HAZE
BLAINE         CLOUDY    37  34  87 S9G16     29.82R
LAKEVILLE      CLOUDY    34  32  93 SW7       29.84F FOG     WCI  28
EDEN PRAIRIE   CLOUDY    36  32  85 SW13      29.82F FOG
SOUTH ST PAUL  CLOUDY    36  32  87 S7        29.85F FOG
LAKE ELMO      CLOUDY    34  32  93 S15       29.85F WCI  24
$$
MNZ001>005-007-008-013>017-022>024-027-028-220900-
   Northwest Minnesota

CITY           SKY/WX    TMP DP  RH WIND       PRES   REMARKS
BEMIDJI        CLEAR     27  24  89 S7        29.64S WCI  19
HALLOCK        PTCLDY    34  30  86 CALM      29.58S
ROSEAU         CLOUDY    34  27  75 SW5       29.58S WCI  30
WARROAD        CLOUDY    30  27  86 SW8       29.58R WCI  23
THIEF RVR FALL MOCLDY    28  27  93 S9        29.62S WCI  20
CROOKSTON      CLEAR     25  21  86 S5        29.64S WCI  19
FOSSTON        PTCLDY    25  21  86 S12       29.65F WCI  14
DETROIT LAKES  CLEAR     28  27  93 SW5       29.69S WCI  23
MOORHEAD       CLEAR     25  25 100 S7        29.69F WCI  17
PARK RAPIDS    FAIR      21  20  96 SW6       29.67F WCI  13
MAHNOMEN       FAIR      26  23  89 S10       29.66F WCI  16
$$
MNZ006-009>011-018-025>026-220900-
   North Central Minnesota

CITY           SKY/WX    TMP DP  RH WIND       PRES   REMARKS
BAUDETTE       CLOUDY    30  25  81 SW8       29.57S WCI  22
FLAG ISLAND    CLOUDY    30  27  86 W8        29.54S WCI  23
INTL FALLS     MOCLDY    28  23  81 SW9       29.58S WCI  19
WASKISH        CLEAR     30  27  86 CALM      29.61S
BIG FORK       PTCLDY    27  25  93 S10       29.63F WCI  17
LONGVILLE      PTCLDY    27  25  93 S5        29.69S WCI  21
GRAND RAPIDS   CLEAR     27  23  86 S10G17    29.67F WCI  17
CRANE LAKE     CLEAR     27  25  93 S6        29.63S WCI  20
ORR            CLEAR     27  21  80 S7        29.60F WCI  19
COOK           CLEAR     28  25  86 SW8       29.64S WCI  20
WALKER         FAIR      28  25  87 SW8       29.66F WCI  20
$$
MNZ012-019>021-037-220900-
   Northeast Minnesota

CITY           SKY/WX    TMP DP  RH WIND       PRES   REMARKS
DULUTH         MOCLDY    28  22  78 SW17G25   29.70F WCI  16
ELY            PTCLDY    27  21  80 SW7       29.63F WCI  19
HIBBING        PTCLDY    28  22  78 SW6       29.67F WCI  22
EVELETH        PTCLDY    27  23  86 SW8       29.67F WCI  18
DULUTH HARBOR  CLOUDY    32  27  80 SW14      29.75F WCI  22
TWO HARBORS    MOCLDY    30  25  80 SW9       29.69F WCI  22
SILVER BAY     MOCLDY    27  21  80 SW5       29.68F WCI  21
GRAND MARAIS     N/A     32  27  81 W10G20    29.68F WCI  24
G MARAIS ARPRT PTCLDY    21  16  79 SW5       29.62F WCI  15
$$
MNZ029>031-032-039>041-046>048-054>057-064-220900-
   West Central Minnesota

CITY           SKY/WX    TMP DP  RH WIND       PRES   REMARKS
FERGUS FALLS   PTCLDY    25  23  93 S8        29.74S WCI  16
WHEATON        PTCLDY    28  25  86 S10       29.74F WCI  19
MORRIS         PTCLDY    25  23  93 S8        29.74S FOG     WCI  16
ALEXANDRIA     CLEAR     30  26  85 SW13      29.73F WCI  20
ELBOW LAKE       N/A     25  23  94 S12       29.71F WCI  14
WADENA         CLEAR     25  23  93 S5        29.69F WCI  19
GLENWOOD       CLEAR     27  25  93 SW9       29.75S WCI  17
APPLETON       CLEAR     34  28  80 S3        29.76F
BENSON         CLEAR     25  23  93 S7        29.76F WCI  17
ORTONVILLE     PTCLDY    34  27  75 CALM      29.75S
MADISON        FAIR      39  34  81 SW6       29.76S
WILLMAR        FAIR      28  25  86 CALM      29.79F
$$
MNZ033>034-036-042>043-049>051-058-059-220900-
   Central Minnesota

CITY           SKY/WX    TMP DP  RH WIND       PRES   REMARKS
ST CLOUD       CLOUDY    32  26  78 S10       29.77F WCI  24
SAUK CENTRE    FAIR      28  26  89 S7        29.75S WCI  21
PAYNESVILLE    PTCLDY    27  25  92 S6        29.77F WCI  21
AITKIN         PTCLDY    30  25  80 S8        29.70F WCI  23
PINE RIVER     PTCLDY    25  23  93 CALM      29.74S
BRAINERD       PTCLDY    27  24  89 S10       29.72F WCI  17
STAPLES        PTCLDY    25  23  93 S7        29.71S WCI  17
LONG PRAIRIE   FAIR      28  27  93 S7        29.74S WCI  21
LITTLE FALLS   MOCLDY    30  25  80 S5        29.76S WCI  25
LITCHFIELD     PTCLDY    30  28  93 CALM      29.79F
BUFFALO        CLOUDY    32  28  86 S7        29.82S WCI  26
MAPLE LAKE     CLOUDY    32  29  90 S5        29.81F WCI  27
$$
MNZ037-044-045-052-053-220900-
   East Central Minnesota

CITY           SKY/WX    TMP DP  RH WIND       PRES   REMARKS
PRINCETON      MOCLDY    34  28  80 S8        29.79F WCI  27
MORA             N/A    N/A N/A N/A MISG        N/A
CAMBRIDGE      CLOUDY    34  27  75 S7        29.78F WCI  28
RUSH CITY      CLOUDY    30  27  88 S6        29.81S WCI  24
MOOSE LAKE     MOCLDY    30  27  86 SW9       29.73F WCI  22
HINCKLEY       FAIR      32  28  86 CALM      29.78F
CLOQUET        MOCLDY    27  23  86 SW12      29.72F WCI  16
MCGREGOR       PTCLDY    30  27  86 S9        29.73S WCI  22
$$
MNZ071>073-080-081-089-090-097-098-220900-
   Southwest Minnesota

CITY           SKY/WX    TMP DP  RH WIND       PRES   REMARKS
MONTEVIDEO     PTCLDY    34  30  86 W9        29.78F WCI  26
GRANITE FALLS  PTCLDY    35  30  83 S13       29.80F WCI  26
CANBY          PTCLDY    36  31  83 SW15G23   29.77S
MARSHALL       MOCLDY    36  27  69 SW15      29.78F
REDWOOD FALLS  MOCLDY    35  29  78 SW14      29.79F WCI  26
OLIVIA         PTCLDY    32  30  93 SW8       29.79S WCI  25
PIPESTONE      CLEAR     28  27  93 S12       29.80F WCI  18
WINDOM         MOCLDY    36  34  93 SW15G21   29.82F FOG
WORTHINGTON    CLOUDY    34  32  93 SW20      29.83F WCI  22
JACKSON        CLOUDY    36  34  93 SW21      29.85F FOG
TRACY          MOCLDY    35  30  81 SW24      29.78F WCI  23
SLAYTON        PTCLDY    31  30  94 SW23      29.80F FOG     WCI  18
$$
MNZ065>067-074>077-082>085-091>093-220900-
   South Central Minnesota

CITY           SKY/WX    TMP DP  RH WIND       PRES   REMARKS
MANKATO        CLOUDY    36  30  80 S13G18    29.85F
NEW ULM        MOCLDY    36  32  87 SW15      29.81F FOG
ST JAMES       MOCLDY    36  34  93 S9        29.86S FOG
FAIRMONT       CLOUDY    36  30  80 S14       29.86F
GLENCOE        MOCLDY    35  33  92 S10G16    29.80F FOG     WCI  27
FARIBAULT      CLOUDY    36  34  93 S10G18    29.86F FOG
OWATONNA       CLOUDY    36  34  93 S17       29.88S FOG
WASECA         CLOUDY    34  30  86 S18G24    29.88F FOG     WCI  23
ALBERT LEA     CLOUDY    36  34  93 S16G23    29.88F FOG
$$
MNZ078>079-086>088-094>096-220900-
   Southeast Minnesota

CITY           SKY/WX    TMP DP  RH WIND       PRES   REMARKS
ROCHESTER      CLOUDY    32  29  88 S23G30    29.90F FOG     WCI  19
RED WING         N/A     36  30  80 S8        29.88F HAZE
STANTON        CLOUDY    36  33  87 SW15G21   29.85F FOG
DODGE CENTER   CLOUDY    34  30  86 SW17G23   29.87F FOG     WCI  23
WINONA         CLOUDY    36  30  80 S7        29.94F
AUSTIN         CLOUDY    34  28  80 S15       29.90F FOG     WCI  24
PRESTON        CLOUDY    32  29  88 SW16G22   29.93R FOG     WCI  21
$$
ABBREVIATIONS USED IN REMARKS
   TC - TEMPERATURES IN CELSIUS
  WCI - WIND CHILL INDEX
   HX - HEAT INDEX
  VSB - VISIBILITY
$$


USA.gov is the U.S. government's official web portal to all federal, state and local government web resources and services.